PILOTS ONLINE: 270    ATC ONLINE: 59

KHHR

Jack Northrop Field Hawthorne Municipal Airport

Location

City Hawthorne
Country  United States
Latitude 33° 55' 22" N
Longitude 118° 20' 5" W
Elevation 66 ft
Type Medium Airport

Map

Weather

METAR
2014/10/21 01:53
KHHR 210153Z 29005KT 10SM CLR 21/17 A2988 RMK AO2 SLP117 T02060167
TAF
No TAF available

Runways

07/25 4956 ft / 100 ft

Outbound flights

Callsign Flying to Pilot ATD/STD ETA Aircraft

Inbound flights

Callsign Flying from Pilot ATD ETA Aircraft